Mount Shasta, CA

2:26 AM PDT on April 25, 2018 (GMT -0700)
Mount Shasta

Weather History for KMHS - April, 2014

Change the Weather History Date:

Saturday, April 26, 2014

  Actual Average Record
Temperature  
Mean Temperature 43 °F 49 °F  
Max Temperature 54 °F 64 °F 83 °F (2004)
Min Temperature 31 °F 35 °F 26 °F (1977)
Degree Days  
Heating Degree Days 22 16  
Month to date heating degree days 370 476  
Since 1 July heating degree days 4590 5155  
Cooling Degree Days 0 0  
Month to date cooling degree days 0 0  
Year to date cooling degree days 0 0  
Moisture  
Dew Point 29 °F    
Average Humidity 61    
Maximum Humidity 85    
Minimum Humidity 33    
Precipitation  
Precipitation 0.00 in 0.09 in 0.60 in (1930)
Month to date precipitation 0.94 2.63  
Year to date precipitation 11.35 22.88  
Sea Level Pressure  
Sea Level Pressure 29.91 in    
Wind  
Wind Speed 4 mph (East)    
Max Wind Speed 12 mph    
Max Gust Speed 18 mph    
Visibility 10 miles    
Events      
T = Trace of Precipitation, MM = Missing Value Source: NWS Daily Summary

Daily Weather History Graph

Daily Weather History Graph

Search for Another Location

Airport or City:

Astronomy

Apr. 26, 2014 Rise Set
Actual Time 6:13 AM PDT 8:01 PM PDT
Civil Twilight 5:43 AM PDT 8:31 PM PDT
Nautical Twilight 5:07 AM PDT 9:07 PM PDT
Astronomical Twilight 4:29 AM PDT 9:46 PM PDT
Moon 4:42 AM PDT (4/26) 5:34 PM PDT (4/26)
Length of Visible Light 14h 47m
Length of Day
13h 48m
Waning Crescent, 7% of the Moon is Illuminated
Apr 26
Waning Crescent
Apr 28
New
May 6
First Quarter
May 14
Full
May 21
Last Quarter

Hourly Weather History & Observations

Time (PDT) Temp. Windchill Dew Point Humidity Pressure Visibility Wind Dir Wind Speed Gust Speed Precip Events Conditions
12:56 AM 35.1 °F 32.2 °F 28.9 °F 78% 29.87 in 10.0 mi Variable 3.5 mph - N/A   Clear
1:56 AM 35.1 °F 32.2 °F 28.9 °F 78% 29.86 in 10.0 mi Variable 3.5 mph - N/A   Clear
2:56 AM 35.1 °F 29.3 °F 28.0 °F 76% 29.87 in 10.0 mi Variable 6.9 mph - N/A   Clear
3:56 AM 35.1 °F 29.3 °F 28.0 °F 76% 29.88 in 10.0 mi Variable 6.9 mph - N/A   Clear
4:56 AM 33.1 °F - 28.0 °F 82% 29.88 in 10.0 mi Calm Calm - N/A   Partly Cloudy
5:56 AM 32.0 °F 28.7 °F 28.0 °F 85% 29.88 in 10.0 mi ENE 3.5 mph - N/A   Mostly Cloudy
6:56 AM 30.9 °F - 27.0 °F 85% 29.93 in 10.0 mi Calm Calm - N/A   Clear
7:56 AM 37.9 °F - 30.0 °F 73% 29.92 in 10.0 mi North - - N/A   Clear
8:56 AM 42.1 °F - 30.9 °F 65% 29.92 in 10.0 mi Calm Calm - N/A   Clear
9:56 AM 45.0 °F 43.5 °F 28.0 °F 52% 29.91 in 10.0 mi Variable 3.5 mph - N/A   Clear
10:56 AM 48.0 °F - 25.0 °F 41% 29.91 in 10.0 mi Variable 6.9 mph - N/A   Partly Cloudy
11:56 AM 48.9 °F - 24.1 °F 38% 29.91 in 10.0 mi Variable 6.9 mph - N/A   Overcast
12:56 PM 50.0 °F - 23.0 °F 35% 29.89 in 10.0 mi North - - N/A   Scattered Clouds
1:56 PM 51.1 °F - 25.0 °F 36% 29.89 in 10.0 mi Variable 3.5 mph - N/A   Overcast
2:56 PM 50.0 °F - 28.0 °F 43% 29.91 in 10.0 mi Calm Calm - N/A   Overcast
3:56 PM 52.0 °F - 28.9 °F 41% 29.91 in 10.0 mi Variable 3.5 mph - N/A   Overcast
4:56 PM 50.0 °F - 28.0 °F 43% 29.92 in 10.0 mi Variable 4.6 mph - N/A   Overcast
5:56 PM 48.9 °F - 27.0 °F 43% 29.94 in 10.0 mi Variable 3.5 mph - N/A   Overcast
6:56 PM 48.0 °F - 30.0 °F 50% 29.94 in 10.0 mi Calm Calm - N/A   Overcast
7:56 PM 46.0 °F 44.8 °F 32.0 °F 58% 29.95 in 10.0 mi ESE 3.5 mph - N/A   Overcast
8:56 PM 45.0 °F - 34.0 °F 65% 29.95 in 10.0 mi Calm Calm - N/A   Overcast
9:56 PM 45.0 °F - 32.0 °F 60% 29.96 in 10.0 mi Calm Calm - N/A   Overcast
10:56 PM 44.1 °F 42.5 °F 35.1 °F 71% 29.96 in 10.0 mi Variable 3.5 mph - N/A   Overcast
11:43 PM 43.0 °F 40.3 °F 34.0 °F 71% 29.91 in 10.0 mi Variable 4.6 mph - N/A   Overcast
11:56 PM 42.1 °F 37.1 °F 34.0 °F 73% 29.96 in 10.0 mi East 8.1 mph - N/A   Overcast